This is the latest recevied weather packets stored in our database for station/object KQ4WWD. If no packets are shown the sender has not sent any weather packets the latest 10 day(s).
| Time | Temp. | Humidity | Pressure | Rain* | Wind** | Luminosity | Snow |
|---|---|---|---|---|---|---|---|
| 1777769432 | 21.67° C | 94% | 1010.9 hPa | 0 mm | - | 0 W/m² | - |
| 1777769128 | 21.67° C | 94% | 1011 hPa | 0 mm | - | 0 W/m² | - |
| 1777768826 | 21.67° C | 94% | 1010.8 hPa | 0 mm | - | 0 W/m² | - |
| 1777768522 | 21.67° C | 94% | 1010.8 hPa | 0 mm | - | 0 W/m² | - |
| 1777768220 | 21.67° C | 94% | 1010.8 hPa | 0 mm | - | 0 W/m² | - |
| 1777767917 | 21.67° C | 94% | 1010.8 hPa | 0 mm | - | 0 W/m² | - |
| 1777767613 | 21.67° C | 93% | 1011 hPa | 0 mm | - | 0 W/m² | - |
| 1777767310 | 21.67° C | 93% | 1010.8 hPa | 0 mm | - | 0 W/m² | - |
| 1777767007 | 21.67° C | 92% | 1010.6 hPa | 0 mm | - | 0 W/m² | - |
| 1777766705 | 21.67° C | 93% | 1010.5 hPa | 0 mm | - | 0 W/m² | - |
| 1777766401 | 21.67° C | 93% | 1010.6 hPa | 0 mm | - | 3 W/m² | - |
| 1777766098 | 21.67° C | 93% | 1010.4 hPa | 0 mm | - | 5 W/m² | - |
| 1777765795 | 21.67° C | 94% | 1010.4 hPa | 0 mm | - | 9 W/m² | - |
| 1777765492 | 21.67° C | 93% | 1010.3 hPa | 0 mm | - | 13 W/m² | - |
| 1777765189 | 21.67° C | 94% | 1010.3 hPa | 0 mm | - | 16 W/m² | - |
| 1777764885 | 21.67° C | 93% | 1010.3 hPa | 0 mm | - | 19 W/m² | - |
| 1777764582 | 21.67° C | 93% | 1010 hPa | 0 mm | - | 27 W/m² | - |
| 1777764278 | 21.67° C | 93% | 1010 hPa | 0 mm | - | 29 W/m² | - |
| 1777763975 | 21.67° C | 93% | 1009.6 hPa | 0 mm | - | 34 W/m² | - |
| 1777763672 | 21.67° C | 93% | 1009.7 hPa | 0 mm | - | 42 W/m² | - |
| 1777763371 | 21.67° C | 93% | 1009.8 hPa | 0 mm | - | 39 W/m² | - |
| 1777763068 | 21.67° C | 93% | 1009.8 hPa | 0 mm | - | 44 W/m² | - |
| 1777762766 | 21.67° C | 93% | 1010 hPa | 0 mm | - | 46 W/m² | - |
| 1777762462 | 21.67° C | 94% | 1009.8 hPa | 0 mm | - | 70 W/m² | - |
| 1777762159 | 21.67° C | 94% | 1009.9 hPa | 0 mm | - | 41 W/m² | - |
* Rain latest hour (hover to see other rain measurements)
** Current wind speed in m/s (hover to see current wind gust speed)